User: anonymous   Login
Location: Arrakis Observatory
(44.1122°N, 95.7153°W)
Time: 20:58:55
(UTC-05:00)
Language:

Coronas F rocket - Orbit

View from above orbital plane
View from above orbital plane
View from above satellite
View from above satellite

Ground track
Ground track

The orbit data is extracted from the following two-line orbital elements,

1 26874U 01032B   16182.91853435 +.00016116 +00000-0 +79933-4 0  9999
2 26874 082.4609 266.8195 0008063 143.6329 216.5488 15.81757430837812
Epoch (UTC): 30 June 2016 22:02:41
Eccentricity: 0.0008063
inclination: 82.4609°
perigee height: 320 km
apogee height: 331 km
right ascension of ascending node: 266.8195°
argument of perigee: 143.6329°
revolutions per day: 15.81757430
mean anomaly at epoch: 216.5488°
orbit number at epoch: 83781

The dashed part of the orbit path shows where the satellite is in the earth's shadow,  

DLR